Knoxville
Sunday 2:15 PM
Temperature72° (72°/57°)
Dew Point50°
Relative Humidity46
%
Visibility
Pressure1024.7
mb
Wind DirectionSSE
160°
Wind Speed10
mph
Precipitation Today0.00"

Last 30 Observations

Time PresWx Temp DP Feels RH% Vsby Pressure Ceiling Direction Speed 1h Precip
1:55 PM 72° 50° 46
%
10
mi
1025.1
mb
10,000
ft
SSE
160°
10
mph
0.00"
1:35 PM 72° 50° 46
%
10
mi
1025.1
mb
7,000
ft
SSE
160°
10
mph
0.00"
1:15 PM 72° 52° 50
%
10
mi
1025.4
mb
10,000
ft
S
180°
11
mph
0.00"
12:55 PM 70° 52° 53
%
10
mi
1025.7
mb
7,000
ft
S
190°
11
mph
0.00"
12:35 PM 70° 52° 53
%
10
mi
1025.7
mb
7,000
ft
SSE
150°
8
mph
0.00"
12:15 PM 70° 52° 53
%
10
mi
1025.7
mb
7,500
ft
S
170°
13
mph
0.00"
11:55 AM 68° 50° 53
%
10
mi
1026.1
mb
7,500
ft
SSE
150°
11
mph
0.00"
11:35 AM 68° 52° 56
%
10
mi
1026.4
mb
7,500
ft
S
170°
8
mph
0.00"
11:15 AM 66° 50° 56
%
10
mi
1026.4
mb
7,500
ft
SE
140°
9
mph
0.00"
10:55 AM 66° 50° 56
%
10
mi
1026.4
mb
7,500
ft
SE
140°
9
mph
0.00"
10:35 AM 66° 52° 60
%
10
mi
1026.4
mb
7,000
ft
SE
140°
10
mph
0.00"
10:15 AM 64° 54° 68
%
10
mi
1026.4
mb
7,000
ft
SE
140°
9
mph
0.00"
9:35 AM 63° 52° 68
%
10
mi
1026.4
mb
7,500
ft
SE
130°
7
mph
0.00"
9:15 AM 61° 54° 77
%
10
mi
1026.4
mb
7,000
ft
ESE
120°
6
mph
0.00"
8:55 AM 61° 55° 82
%
10
mi
1026.4
mb
7,000
ft
SE
130°
6
mph
0.00"
8:35 AM 61° 54° 77
%
10
mi
1026.4
mb
7,000
ft
SE
140°
6
mph
0.00"
8:15 AM 59° 55° 88
%
10
mi
1026.4
mb
7,000
ft
SE
130°
6
mph
0.00"
7:55 AM 59° 55° 88
%
10
mi
1026.8
mb
7,500
ft
ESE
110°
5
mph
0.00"
7:35 AM 59° 55° 88
%
10
mi
1026.4
mb
7,500
ft
ESE
110°
5
mph
0.00"
7:15 AM 59° 55° 88
%
10
mi
1026.1
mb
7,500
ft
Calm 0.00"
6:55 AM 59° 55° 88
%
10
mi
1025.4
mb
8,500
ft
ESE
110°
3
mph
0.00"
6:35 AM 57° 55° 94
%
10
mi
1025.4
mb
9,000
ft
ESE
110°
5
mph
0.00"
6:15 AM 57° 55° 94
%
10
mi
1025.1
mb
9,000
ft
E
100°
6
mph
0.00"
5:55 AM 57° 55° 94
%
10
mi
1024.7
mb
ESE
110°
6
mph
0.00"
5:35 AM 57° 55° 94
%
10
mi
1024.7
mb
ESE
120°
5
mph
0.00"
5:15 AM 57° 57° 100
%
10
mi
1024.4
mb
ESE
110°
5
mph
0.00"
4:55 AM 57° 57° 100
%
10
mi
1024.4
mb
E
90°
3
mph
0.00"
4:35 AM 59° 59° 100
%
10
mi
1024.4
mb
E
80°
5
mph
0.00"
4:15 AM 59° 59° 100
%
10
mi
1024.4
mb
ENE
70°
5
mph
0.00"
3:35 AM 61° 59° 94
%
10
mi
1024.7
mb
10,000
ft
Calm 0.00"